Epoch 2020 Aug. 19.0 TT = JDT 2459080.5
T 2020 Aug. 8.31221 TT Rudenko
q 2.6786431 (2000.0) P Q
n 0.12101273 Peri. 52.99839 +0.97484915 -0.16607108
a 4.0480762 Node 315.99904 +0.06331438 +0.84577618
e 0.3382923 Incl. 12.35400 +0.21368300 +0.50703357
P 8.14
From 74 observations 2020 Aug. 26-Dec. 16, mean residual 0".4.